www.pogodaiklimat.ru

Погода и климат >> Архив погоды >> Россия >> Владимирская область >> Суздаль


ПОГОДА в Суздале

  • Прогноз погоды в Суздале
  • Монитор погоды в Суздале

АРХИВ ПОГОДЫ в Суздале

Время (UTC), дата Ветер
(напр.,м/с)
 
Видим.   Явления Облачность Т
(С)
Тd
(С)
f
(%)
Тe
(С)
Тes
(С)
Комфортность P
(гПа)
Po
(гПа)
Тmin
(С)
Tmax
(С)
R
(мм)
R24
(мм)
S
(см)
00 20.03 штиль 0 н/о н/о +1.7 +1.2 96 0 0 1021.3 1006.0
03 20.03 ЮЗ 2 н/о н/о +1.6 +1.0 96 -2 -2 1021.0 1005.7 +1.5
06 20.03 штиль 0 н/о н/о +1.9 +1.0 94 +1 +1 1021.7 1006.4 +1.5
09 20.03 штиль 0 н/о н/о +4.6 -0.3 70 +4 +4 1021.6 1006.5
12 20.03 штиль 0 н/о н/о +4.6 -2.2 61 +4 +4 1021.5 1006.4
15 20.03 штиль 0 н/о н/о +3.5 -2.3 66 +3 +3 1021.5 1006.3 +5.5
18 20.03 штиль 0 н/о н/о +2.2 -2.2 73 +1 +1 1022.1 1006.8
21 20.03 штиль 0 н/о н/о +1.8 -2.5 73 +1 +1 1021.4 1006.1
00 21.03 штиль 0 н/о н/о +1.1 -2.6 76 0 0 1020.7 1005.4
03 21.03 штиль 0 н/о н/о +0.5 -2.6 80 -1 -1 1019.9 1004.6 +0.5
06 21.03 штиль 0 н/о н/о +1.6 -2.3 75 +1 +1 1019.4 1004.1 +0.5
09 21.03 штиль 0 н/о н/о +2.5 -2.3 71 +2 +2 1019.0 1003.8
12 21.03 штиль 0 н/о н/о +3.9 -3.8 57 +3 +3 1018.2 1003.1
15 21.03 штиль 0 н/о н/о +2.7 -3.3 65 +2 +2 1018.0 1002.8 +4.4
18 21.03 штиль 0 н/о н/о +1.7 -2.6 73 +1 +1 1018.1 1002.9
21 21.03 штиль 0 н/о н/о +1.1 -2.2 79 0 0 1017.4 1002.1
00 22.03 штиль 0 н/о н/о +1.0 -2.2 79 0 0 1015.9 1000.6
03 22.03 ЮЗ 2 н/о н/о +0.3 -2.6 81 -3 -3 1013.3 998.0 +0.3
06 22.03 штиль 0 н/о н/о +1.8 -1.8 77 +1 +1 1010.1 995.0 -0.3
09 22.03 штиль 0 н/о н/о +1.6 -0.5 86 +1 +1 1007.0 991.9
12 22.03 штиль 0 н/о н/о +0.4 -0.5 94 -1 -1 1005.5 990.4
15 22.03 штиль 0 н/о н/о +0.5 -0.5 93 -1 -1 1006.1 991.0 +2.8
18 22.03 штиль 0 н/о н/о +0.1 -0.6 95 -1 -1 1008.0 992.9
21 22.03 штиль 0 н/о н/о +0.2 -0.6 94 -1 -1 1010.8 995.7
00 23.03 штиль 0 н/о н/о +0.3 -0.8 92 -1 -1 1014.4 999.2
03 23.03 С 1 н/о н/о 0.0 -1.0 93 -2 -2 1017.9 1002.5 -0.0
06 23.03 штиль 0 н/о н/о +0.5 -1.8 85 -1 -1 1020.8 1005.4 -0.2
09 23.03 штиль 0 н/о н/о +4.1 -3.0 60 +4 +4 1021.4 1006.2
12 23.03 штиль 0 н/о н/о +5.1 -6.0 45 +5 +5 1021.0 1005.9
15 23.03 штиль 0 н/о н/о +3.9 -3.3 59 +3 +3 1020.8 1005.7 +5.8
18 23.03 штиль 0 н/о н/о -1.1 -3.6 83 -2 -2 1020.9 1005.4
21 23.03 штиль 0 н/о н/о -3.2 -5.0 87 -4 -4 1019.3 1003.8
00 24.03 штиль 0 н/о н/о -5.3 -6.8 89 -6 -6 1017.7 1002.1
03 24.03 штиль 0 н/о н/о -5.6 -6.8 91 -7 -7 1015.2 999.6 -6.2
06 24.03 штиль 0 н/о н/о -0.2 -4.0 76 -1 -1 1013.1 997.8 -6.2
09 24.03 штиль 0 н/о н/о +2.1 -3.3 67 +1 +1 1010.6 995.5
12 24.03 штиль 0 н/о н/о +0.9 -1.2 86 -0 -0 1008.4 993.3
15 24.03 Ю 2 н/о н/о 0.0 -0.8 94 -4 -4 1006.7 991.5 +2.3
18 24.03 штиль 0 н/о н/о -0.1 -0.8 95 -1 -1 1005.9 990.8
21 24.03 штиль 0 н/о н/о +0.2 -0.8 93 -1 -1 1005.1 990.0
00 25.03 штиль 0 н/о н/о +0.6 -0.5 92 -1 -1 1004.1 989.0
03 25.03 штиль 0 н/о н/о 0.0 -1.3 91 -1 -1 1003.6 988.5 -0.1
06 25.03 штиль 0 н/о н/о -0.6 -2.3 88 -2 -2 1003.8 988.7 -0.7
09 25.03 штиль 0 н/о н/о +2.9 -3.3 64 +2 +2 1003.2 988.2
12 25.03 штиль 0 н/о н/о +4.4 -6.0 47 +4 +4 1003.0 988.1
15 25.03 штиль 0 н/о н/о +3.1 -5.3 54 +3 +3 1003.6 988.6 +4.4
18 25.03 З 2 н/о н/о 0.0 -5.2 68 -3 -3 1004.6 989.5
21 25.03 ЮЗ 2 н/о н/о +0.5 -5.3 65 -3 -3 1005.3 990.2
00 26.03 ЮЗ 2 н/о н/о -0.7 -5.6 69 -4 -4 1005.5 990.3
03 26.03 штиль 0 н/о н/о -3.6 -7.2 76 -4 -4 1005.3 990.0 -3.6
06 26.03 штиль 0 н/о н/о +0.6 -5.6 63 -0 -0 1004.7 989.6 -3.8
09 26.03 штиль 0 н/о н/о +6.1 -4.2 48 +6 +6 1003.5 988.7
12 26.03 штиль 0 н/о н/о +6.1 -3.2 51 +6 +6 1002.9 988.1
15 26.03 ЮЗ 2 н/о н/о +3.2 -0.6 76 0 0 1003.7 988.8 +6.4

 

Местоположение метеостанции Суздаль (Владимирская область, Россия): широта 56.42 долгота 40.46 высота над уровнем моря 121 м.

В архиве по умолчанию представлена погода в Суздале за последнюю неделю. Архивные данные за месяц целиком и за предыдущие месяцы, начиная с января 2011 года, Вы можете получить, выбрав интересующий диапазон дат из раскрывающегося списка и нажав кнопку "Ввод!".


*Определитесь, кто Вы:
робот инопланетянин человек

Внимание! Время в таблицах - всемирное. Для получения местного времени необходимо прибавить поправку, которая равна 3 ч.

Смотрите также архив погоды в соседних городах и на ближайших метеорологических станциях:

Погода в Владимире (Владимирская область, Россия) (34 км)
Погода в Тейково (Ивановская область, Россия) (48 км)
Погода в Юрьев-Польском (Владимирская область, Россия) (48 км)
Погода в Коврове (Владимирская область, Россия) (55 км)
Погода в Иванове (Ивановская область, Россия) (67 км)
Погода в Шуе (Ивановская область, Россия) (75 км)
Погода в Петушках (Владимирская область, Россия) (82 км)
Погода в Гусь-Хрустальный (Владимирская область, Россия) (92 км)
Погода в Пешном (Атырауская область, Казахстан) (93 км)
Погода в Черустях (Московская область, Россия) (101 км)

Пояснения к столбцам:

Ветер - указаны скорость ветра в м/с - средняя за 10 мин, порывы в срок и между сроками (в фигурных скобках) и направление, откуда дует ветер: С - северный, СВ - северо-восточный, В - восточный, ЮВ - юго-восточный, Ю - южный, ЮЗ - юго-западный, З - западный, СЗ - северо-западный.
Видимость - горизонтальная дальность видимости в метрах или километрах. При видимости от 1 до 10 км при отсутствии осадков обычно наблюдается дымка, при ухудшении видимости до 1 км и менее - туман. В сухую погоду видимость может ухудшаться дымом, пылью или мглою.
Явления - указаны атмосферные явления, наблюдавшиеся в срок или в последний час перед сроком; фигурными скобками обозначены явления, наблюдавшиеся между сроками (за 1-3 часа до срока); квадратными скобками обозначены град или гололедные отложения с указанием их диаметра в мм.
Облачность - указаны через наклонную черту общая и нижняя облачность в баллах и высота нижней границы облаков в метрах; квадратными скобками обозначены формы облаков: Ci - перистые, Cs - перисто-слоистые, Cc - перисто-кучевые, Ac - высококучевые, As - высокослоистые, Sc - слоисто-кучевые, Ns - слоисто-дождевые, Cu - кучевые, Cb - кучево-дождевые. Подробнее классификацию облаков см. в Атласе облаков (PDF).
T - Температура воздуха - температура, измеренная на высоте 2 м над землей.
Td - Температура точки росы - температура, при понижении до которой содержащийся в воздухе водяной пар достигнет насыщения.
f - Относительная влажность воздуха - влажноcть воздуха, измеренная на высоте 2 м над землей.
Te - Эффективная температура - температура, которую ощущает одетый по сезону человек в тени. Характеристика душности погоды. При расчете учитывается влияние влажности воздуха и скорости ветра на теплоощущения человека.
Tes - Эффективная температура на солнце - температура, которую ощущает человек, с поправкой на солнечный нагрев. Характеристика знойности погоды. Зависит от высоты солнца над горизонтом, облачности и скорости ветра. Ночью, в пасмурную погоду, а также при ветре 12 м/с и более поправка равна нулю.
P - Атмосферное давление - приведенное к уровню моря атмосферное давление.
Po - Атмосферное давление - измеренное на уровне метеостанции атмосферное давление.
Tmin - Минимальная температура - минимум температуры воздуха на высоте 2 м над землей.
Tmax - Максимальная температура - максимум температуры воздуха на высоте 2 м над землей.
R - Количество осадков - Количество выпавших осадков за период времени, мм. При наведении курсора мыши на число - период времени, за который выпало указанное количество осадков.
R24 - Количество осадков - Количество выпавших осадков за 24 часа, мм.
S - Снежный покров - Высота снежного покрова, см. При наведении курсора мыши на число - состояние снежного покрова и степень покрытия местности в баллах.